When you browse on this site, cookies collect data to enhance your experience and personalize the content and advertising you see.
Visit our Privacy Policy to learn more. By continuing to use the site, you agree to this use of cookies and data.
EN

Hourly Weather Silistra

Today, 11 July, Saturday

Time Temperature Precipitation Wind Pressure Humidity
00:00 +18°C° 0 mm 2 mps 759 mmHg 71%
01:00 +18°C° 0 mm 2 mps 759 mmHg 73%
02:00 +18°C° 0 mm 2 mps 759 mmHg 75%
03:00 +18°C° 0 mm 1 mps 759 mmHg 77%
04:00 +18°C° 0 mm 1 mps 759 mmHg 78%
05:00 +18°C° 0 mm 1 mps 759 mmHg 80%
06:00 +20°C° 0 mm 1 mps 759 mmHg 73%
07:00 +22°C° 0 mm 1 mps 759 mmHg 67%
08:00 +24°C° 0 mm 2 mps 759 mmHg 60%
09:00 +26°C° 0 mm 3 mps 759 mmHg 55%
10:00 +28°C° 0 mm 3 mps 759 mmHg 49%
11:00 +30°C° 0 mm 4 mps 758 mmHg 44%
12:00 +30°C° 0 mm 4 mps 758 mmHg 41%
13:00 +32°C° 0 mm 4 mps 758 mmHg 39%
14:00 +32°C° 0 mm 5 mps 758 mmHg 37%
15:00 +32°C° 0 mm 5 mps 757 mmHg 39%
16:00 +30°C° 0 mm 5 mps 757 mmHg 41%
17:00 +30°C° 0 mm 5 mps 757 mmHg 43%
18:00 +28°C° 0 mm 4 mps 757 mmHg 51%
19:00 +25°C° 0 mm 3 mps 756 mmHg 58%
20:00 +22°C° 0 mm 3 mps 756 mmHg 66%
21:00 +21°C° 0 mm 2 mps 756 mmHg 71%
22:00 +20°C° 0 mm 2 mps 756 mmHg 75%
23:00 +19°C° 0 mm 2 mps 757 mmHg 80%

Tomorrow, 12 July, Sunday

Time Temperature Precipitation Wind Pressure Humidity
00:00 +20°C° 0 mm 1 mps 756 mmHg 82%
01:00 +19°C° 0 mm 1 mps 756 mmHg 85%
02:00 +18°C° 0 mm 1 mps 755 mmHg 87%
03:00 +16°C° 0 mm 0 mps 755 mmHg 87%
04:00 +16°C° 0 mm 0 mps 755 mmHg 87%
05:00 +16°C° 0 mm 0 mps 755 mmHg 88%
06:00 +18°C° 0 mm 0 mps 755 mmHg 80%
07:00 +22°C° 0 mm 1 mps 755 mmHg 73%
08:00 +24°C° 0 mm 1 mps 755 mmHg 65%
09:00 +26°C° 0 mm 1 mps 755 mmHg 58%
10:00 +28°C° 0 mm 1 mps 755 mmHg 50%
11:00 +29°C° 0 mm 1 mps 755 mmHg 42%
12:00 +30°C° 0 mm 1 mps 755 mmHg 39%
13:00 +31°C° 0 mm 1 mps 755 mmHg 36%
14:00 +32°C° 0 mm 2 mps 754 mmHg 33%
15:00 +32°C° 0 mm 2 mps 754 mmHg 34%
16:00 +32°C° 0 mm 2 mps 754 mmHg 34%
17:00 +32°C° 0 mm 2 mps 754 mmHg 35%
18:00 +30°C° 0 mm 2 mps 754 mmHg 40%
19:00 +28°C° 0 mm 2 mps 754 mmHg 45%
20:00 +27°C° 0 mm 2 mps 754 mmHg 50%
21:00 +24°C° 0.1 mm 3 mps 755 mmHg 60%
22:00 +21°C° 0.1 mm 4 mps 755 mmHg 70%
23:00 +17°C° 0.1 mm 6 mps 756 mmHg 80%

Day after tomorrow, 13 July, Monday

Time Temperature Precipitation Wind Pressure Humidity
00:00 +17°C° 0.4 mm 6 mps 756 mmHg 82%
01:00 +16°C° 0.4 mm 5 mps 756 mmHg 84%
02:00 +15°C° 0.4 mm 5 mps 756 mmHg 86%
03:00 +14°C° 1.1 mm 6 mps 756 mmHg 87%
04:00 +14°C° 1.1 mm 6 mps 756 mmHg 88%
05:00 +13°C° 1.1 mm 6 mps 756 mmHg 89%
06:00 +13°C° 0.5 mm 6 mps 757 mmHg 88%
07:00 +13°C° 0.5 mm 6 mps 757 mmHg 87%
08:00 +13°C° 0.5 mm 6 mps 757 mmHg 86%
09:00 +14°C° 0 mm 6 mps 757 mmHg 80%
10:00 +15°C° 0 mm 6 mps 758 mmHg 75%
11:00 +16°C° 0 mm 6 mps 758 mmHg 70%
12:00 +19°C° 0 mm 6 mps 758 mmHg 66%
13:00 +20°C° 0 mm 6 mps 758 mmHg 63%
14:00 +21°C° 0 mm 7 mps 757 mmHg 59%
15:00 +21°C° 0 mm 6 mps 757 mmHg 59%
16:00 +22°C° 0 mm 6 mps 757 mmHg 58%
17:00 +22°C° 0 mm 5 mps 756 mmHg 57%
18:00 +21°C° 0 mm 4 mps 757 mmHg 62%
19:00 +19°C° 0 mm 4 mps 757 mmHg 68%
20:00 +18°C° 0 mm 3 mps 757 mmHg 73%
21:00 +17°C° 0 mm 3 mps 757 mmHg 77%
22:00 +16°C° 0 mm 3 mps 757 mmHg 81%
23:00 +14°C° 0 mm 3 mps 758 mmHg 86%

14 July, Tuesday

Time Temperature Precipitation Wind Pressure Humidity
00:00 +14°C° 0 mm 3 mps 758 mmHg 86%
01:00 +15°C° 0 mm 2 mps 758 mmHg 86%
02:00 +14°C° 0 mm 2 mps 758 mmHg 86%
03:00 +14°C° 0 mm 1 mps 758 mmHg 85%
04:00 +14°C° 0 mm 1 mps 758 mmHg 85%
05:00 +13°C° 0 mm 1 mps 758 mmHg 84%
06:00 +16°C° 0 mm 1 mps 758 mmHg 77%
07:00 +18°C° 0 mm 2 mps 758 mmHg 69%
08:00 +20°C° 0 mm 3 mps 758 mmHg 62%
09:00 +21°C° 0 mm 3 mps 758 mmHg 57%
10:00 +22°C° 0 mm 3 mps 758 mmHg 52%
11:00 +25°C° 0 mm 3 mps 758 mmHg 48%
12:00 +25°C° 0 mm 3 mps 758 mmHg 46%
13:00 +26°C° 0 mm 3 mps 757 mmHg 45%
14:00 +26°C° 0 mm 3 mps 757 mmHg 43%
15:00 +26°C° 0 mm 2 mps 757 mmHg 44%
16:00 +26°C° 0 mm 2 mps 756 mmHg 44%
17:00 +26°C° 0 mm 2 mps 756 mmHg 45%
18:00 +24°C° 0 mm 1 mps 756 mmHg 50%
19:00 +23°C° 0 mm 1 mps 757 mmHg 55%
20:00 +21°C° 0 mm 1 mps 757 mmHg 59%
21:00 +20°C° 0 mm 1 mps 757 mmHg 61%
22:00 +20°C° 0 mm 1 mps 757 mmHg 62%
23:00 +19°C° 0 mm 1 mps 757 mmHg 64%

15 July, Wednesday

Time Temperature Precipitation Wind Pressure Humidity
00:00 +19°C° 0 mm 1 mps 757 mmHg 65%
01:00 +18°C° 0 mm 1 mps 757 mmHg 67%
02:00 +16°C° 0 mm 0 mps 757 mmHg 69%
03:00 +15°C° 0 mm 0 mps 757 mmHg 71%
04:00 +15°C° 0 mm 0 mps 757 mmHg 73%
05:00 +15°C° 0 mm 0 mps 757 mmHg 74%
06:00 +17°C° 0 mm 0 mps 757 mmHg 69%
07:00 +19°C° 0 mm 0 mps 757 mmHg 63%
08:00 +21°C° 0 mm 0 mps 757 mmHg 57%
09:00 +24°C° 0 mm 1 mps 757 mmHg 53%
10:00 +26°C° 0 mm 1 mps 757 mmHg 49%
11:00 +27°C° 0 mm 2 mps 757 mmHg 44%
12:00 +28°C° 0 mm 2 mps 757 mmHg 41%
13:00 +29°C° 0 mm 2 mps 757 mmHg 39%
14:00 +29°C° 0 mm 2 mps 756 mmHg 36%
15:00 +29°C° 0 mm 2 mps 756 mmHg 36%
16:00 +29°C° 0 mm 2 mps 756 mmHg 37%
17:00 +29°C° 0 mm 2 mps 755 mmHg 37%
18:00 +27°C° 0 mm 2 mps 755 mmHg 44%
19:00 +25°C° 0 mm 2 mps 756 mmHg 51%
20:00 +22°C° 0 mm 3 mps 756 mmHg 57%
21:00 +21°C° 0 mm 3 mps 756 mmHg 59%
22:00 +20°C° 0 mm 3 mps 756 mmHg 62%
23:00 +19°C° 0 mm 3 mps 756 mmHg 64%

16 July, Thursday

Time Temperature Precipitation Wind Pressure Humidity
00:00 +19°C° 0 mm 3 mps 756 mmHg 64%
01:00 +19°C° 0 mm 2 mps 756 mmHg 63%
02:00 +19°C° 0 mm 2 mps 756 mmHg 63%
03:00 +18°C° 0 mm 2 mps 755 mmHg 64%
04:00 +19°C° 0 mm 1 mps 755 mmHg 65%
05:00 +19°C° 0 mm 1 mps 755 mmHg 67%
06:00 +21°C° 0 mm 1 mps 755 mmHg 61%
07:00 +23°C° 0 mm 1 mps 755 mmHg 56%
08:00 +25°C° 0 mm 1 mps 755 mmHg 51%
09:00 +27°C° 0 mm 1 mps 755 mmHg 47%
10:00 +28°C° 0 mm 1 mps 755 mmHg 43%
11:00 +30°C° 0 mm 1 mps 755 mmHg 39%
12:00 +30°C° 0 mm 1 mps 755 mmHg 37%
13:00 +31°C° 0 mm 1 mps 754 mmHg 36%
14:00 +31°C° 0 mm 1 mps 754 mmHg 35%
15:00 +31°C° 0 mm 1 mps 754 mmHg 36%
16:00 +31°C° 0 mm 1 mps 753 mmHg 37%
17:00 +30°C° 0 mm 1 mps 753 mmHg 39%
18:00 +29°C° 0 mm 2 mps 753 mmHg 43%
19:00 +27°C° 0 mm 2 mps 753 mmHg 48%
20:00 +25°C° 0 mm 3 mps 753 mmHg 52%
21:00 +24°C° 0 mm 3 mps 754 mmHg 55%
22:00 +22°C° 0 mm 3 mps 754 mmHg 59%
23:00 +20°C° 0 mm 3 mps 754 mmHg 62%
Show more